Terminal Aerodrome Forecast
Issued by NWS

Home | Current Version | Previous Version | Text Only | Print | Product List | Glossary On
Versions: 1 2 3 4 5 6 7 8 9 10 11 12 13 14 15 16 17 18 19 20 21 22 23 24 25 26 27 28 29 30 31 32 33 34 35 36 37 38 39 40 41 42 43 44 45 46 47 48 49 50
000
FTAK31 PANC 302330
TAFASN
TAF
PASN 302330Z 3100/3124 VRB04KT P6SM BKN005
     FM310400 VRB03KT 6SM BR OVC004
     FM310900 VRB02KT 1/2SM FG VV003
     FM311800 05004KT 4SM BR OVC005
     FM312100 09006KT P6SM OVC008=

USA.gov is the U.S. government's official web portal to all federal, state and local government web resources and services.